[[{"header":{"parameterUnit":"m.s-1","parameterCategory":1,"la1":30.2991,"la2":30.254,"lo1":-89.0895,"lo2":-89.0444,"dy":0.0017,"dx":0.0017,"nx":28,"ny":28,"refTime":"2025-04-03T09:00:00:Z","depth":0,"parameterNumber":2,"parameterNumberName":"U-component_of_WINDS"},"data":[0,0,0,0,0,0,0,0,0,0,0,0,0,0,0,0,0,0,0,0,0,0,0,0,0,0,0,0,0,0,0,0,0,0,0,0,0,0,0,0,0,0,0,0,0,0,0,0,0,0,0,0,0,0,0,0,0,0,-5.5778,-5.578,0,-5.5931,-5.5933,-5.5935,-5.5954,-5.5952,-5.5951,-5.5949,-5.6101,-5.6107,-5.6112,0,0,0,0,0,0,0,0,0,0,0,0,0,-5.5498,-5.5503,-5.5778,-5.578,-5.5782,-5.5931,-5.5933,-5.5935,-5.5954,-5.5952,-5.595,-5.5949,-5.61,-5.6106,-5.6113,0,0,0,0,0,0,0,0,0,0,0,0,0,-5.5632,-5.5505,-5.5778,-5.5809,-5.5814,-5.5931,-5.5933,-5.5936,-5.5954,-5.5952,-5.595,-5.5948,-5.6098,-5.6105,-5.6113,-5.6208,0,0,-5.6138,-5.6142,0,0,0,0,0,0,0,0,-5.5625,-5.5642,-5.5803,-5.5807,-5.5812,-5.5921,-5.589,-5.6027,-5.5955,-5.5901,-5.5949,-5.5947,-5.6043,-5.6055,-5.6089,-5.6215,-5.6222,-5.6139,-5.6144,-5.6148,-5.615,0,0,0,0,0,0,0,-5.5615,-5.5636,-5.5839,-5.5805,-5.5811,-5.5815,-5.5831,-5.5916,-5.5982,-5.5905,-5.5907,-5.5925,-5.6045,-5.6081,-5.6093,-5.6224,-5.6139,-5.6146,-5.6151,-5.6154,-5.6435,-5.6438,0,0,0,0,0,0,-5.5601,-5.5628,-5.5834,-5.5843,-5.5711,-5.5821,-5.584,-5.5888,-5.5981,-5.5994,-5.5927,-5.5925,-5.6068,-5.6083,-5.6098,-5.6214,-5.6147,-5.6155,-5.616,-5.6433,-5.6436,-5.6439,0,0,0,0,0,0,-5.5595,-5.5619,-5.5828,-5.5736,-5.5763,-5.5829,-5.5883,-5.5893,-5.5928,-5.5998,-5.6009,-5.5952,-5.6067,-5.6087,-5.6181,-5.6219,-5.6159,-5.6166,-5.643,-5.6434,-5.6437,-5.6446,0,0,0,0,0,0,-5.5587,-5.5617,-5.5654,-5.5737,-5.5768,-5.5909,-5.5885,-5.5897,-5.5943,-5.5943,-5.6024,-5.6035,-5.6067,-5.6169,-5.6189,-5.6229,-5.6173,-5.6426,-5.6431,-5.6436,-5.6443,-5.645,-5.6456,0,0,0,0,0,-5.5576,-5.565,-5.5656,-5.568,-5.5816,-5.5911,-5.5928,-5.5964,-5.5946,-5.5983,-5.6028,-5.6033,-5.6213,-5.6178,-5.6201,-5.6245,-5.6424,-5.643,-5.6436,-5.644,-5.6449,-5.6456,0,0,0,0,0,0,-5.5567,-5.5661,-5.5669,-5.5771,-5.5833,-5.5914,-5.5962,-5.5973,-5.604,-5.6036,-5.6077,-5.6095,-5.6187,-5.6226,-5.6186,-5.6341,-5.6316,-5.6327,-5.6312,-5.6321,-5.6327,-5.6314,-5.6179,0,0,0,0,0,-5.5578,-5.5648,-5.5726,-5.5809,-5.584,-5.5896,-5.5938,-5.5961,-5.6026,-5.6052,-5.6103,-5.6165,-5.6236,-5.6281,-5.635,-5.645,-5.6467,-5.6491,-5.6498,-5.6503,-5.6511,-5.6565,-5.6577,-5.6458,-5.6458,-5.6457,0,0,-5.5599,-5.5659,-5.57,-5.5808,-5.5859,-5.5929,-5.5917,-5.5993,-5.6045,-5.6063,-5.6155,-5.6195,-5.6267,-5.6364,-5.641,-5.6399,-5.6548,-5.6511,-5.6514,-5.6519,-5.6572,-5.6584,-5.6593,-5.6462,-5.6461,-5.646,0,0,-5.5672,-5.5726,-5.58,-5.5852,-5.593,-5.5967,-5.5985,-5.6065,-5.6093,-5.6186,-5.6201,-5.6264,-5.6385,-5.6435,-5.6476,-5.6571,-5.6577,-5.6593,-5.6626,-5.6679,-5.6688,-5.6697,-5.6728,-5.6739,-5.6601,-5.6601,-5.6601,0,-5.5688,-5.5796,-5.5837,-5.5912,-5.5958,-5.5981,-5.6055,-5.6103,-5.6198,-5.6229,-5.6217,-5.6369,-5.6419,-5.6528,-5.6551,-5.6585,-5.6605,-5.6582,-5.6684,-5.6693,-5.6701,-5.6732,-5.6744,-5.6602,-5.6602,-5.6602,-5.6602,0,-5.5811,-5.5886,-5.5936,-5.6029,-5.6082,-5.6156,-5.6207,-5.6255,-5.6274,-5.6313,-5.6407,-5.6469,-5.655,-5.6578,-5.6597,-5.669,-5.668,-5.6676,-5.6651,-5.6713,-5.6742,-5.6754,-5.6604,-5.6603,-5.6603,-5.6603,0,0,-5.5879,-5.5996,-5.6014,-5.6056,-5.6144,-5.6202,-5.6278,-5.6359,-5.6398,-5.6465,-5.6527,-5.663,-5.6627,-5.6674,-5.6699,-5.6746,-5.6814,-5.6735,-5.6737,-5.6745,-5.6918,-5.6919,-5.6932,-5.6821,-5.6823,-5.6825,-5.6911,0,-5.5961,-5.6097,-5.6137,-5.625,-5.6319,-5.6343,-5.6408,-5.6469,-5.6507,-5.657,-5.6612,-5.6684,-5.6675,-5.6703,-5.6751,-5.6796,-5.6849,-5.6791,-5.6877,-5.688,-5.6855,-5.6948,-5.6949,-5.7027,-5.6923,-5.6925,-5.6927,0,-5.6074,-5.6143,-5.6264,-5.6344,-5.6374,-5.6433,-5.651,-5.6571,-5.664,-5.6665,-5.6718,-5.674,-5.6818,-5.6792,-5.69,-5.6859,-5.6897,-5.6925,-5.6929,-5.6935,-5.6904,-5.6954,-5.7053,-5.7063,-5.6946,-5.6944,-5.6943,0,-5.6109,-5.6233,-5.6321,-5.6357,-5.6453,-5.6493,-5.6534,-5.6602,-5.6648,-5.6716,-5.6746,-5.6822,-5.6862,-5.692,-5.6961,-5.6939,-5.7064,-5.7042,-5.7085,-5.7083,-5.7107,-5.7104,-5.721,-5.7137,-5.7137,-5.7137,-5.7136,0,-5.6194,-5.6266,-5.6338,-5.6391,-5.6473,-5.6518,-5.6598,-5.664,-5.67,-5.6762,-5.6787,-5.6844,-5.6896,-5.696,-5.6993,-5.7075,-5.7094,-5.7115,-5.7122,-5.7111,-5.7108,-5.7134,-5.7128,-5.714,-5.7139,-5.7138,-5.7138,0,-5.6245,-5.6296,-5.6393,-5.6477,-5.65,-5.6556,-5.6627,-5.668,-5.672,-5.6798,-5.6818,-5.6881,-5.6958,-5.7005,-5.7102,-5.7124,-5.7214,-5.7221,-5.7191,-5.7194,-5.7232,-5.7227,-5.7356,-5.7375,-5.7292,-5.7292,-5.7293,0,-5.6294,-5.635,-5.6441,-5.6485,-5.6527,-5.6597,-5.6645,-5.6692,-5.6741,-5.6825,-5.6867,-5.6946,-5.701,-5.7131,-5.7185,-5.7259,-5.7266,-5.7306,-5.7276,-5.7263,-5.7263,-5.7258,-5.7263,-5.7309,-5.731,-5.7311,-5.7311,0,-5.6375,-5.6398,-5.6467,-5.6545,-5.6602,-5.6665,-5.6728,-5.6762,-5.682,-5.6873,-5.6953,-5.7003,-5.7103,-5.718,-5.7259,-5.7301,-5.7315,-5.7321,-5.7334,-5.7321,-5.73,-5.731,-5.7201,-5.7316,-5.7316,-5.7315,-5.7315,-5.7315,-5.6425,-5.6476,-5.6547,-5.6623,-5.6676,-5.6735,-5.6788,-5.6836,-5.6904,-5.6989,-5.7013,-5.7096,-5.7164,-5.7272,-5.7316,-5.738,-5.7374,-5.7394,-5.7398,-5.7401,-5.7401,-5.7293,-5.7395,-5.7395,-5.7395,-5.7395,-5.7394,0,-5.6505,-5.6553,-5.6622,-5.671,-5.677,-5.6782,-5.6852,-5.69,-5.6973,-5.7036,-5.7101,-5.7191,-5.7267,-5.7327,-5.7404,-5.7444,-5.7452,-5.7462,-5.7458,-5.7467,-5.7403,-5.7382,-5.7454,-5.7454,-5.7454,-5.7454,-5.7454,-5.7454,-5.6553,-5.664,-5.6671,-5.6784,-5.6832,-5.6913,-5.6953,-5.7006,-5.7057,-5.7158,-5.7221,-5.7261,-5.7323,-5.7405,-5.7474,-5.749,-5.7515,-5.7524,-5.754,-5.7478,-5.7472,-5.7465,-5.7446,-5.753,-5.753,-5.7599,-5.7599,-5.76]},{"header":{"parameterUnit":"m.s-1","parameterCategory":1,"la1":30.2991,"la2":30.254,"lo1":-89.0895,"lo2":-89.0444,"dy":0.0017,"dx":0.0017,"nx":28,"ny":28,"refTime":"2025-04-03T09:00:00:Z","depth":0,"parameterNumber":3,"parameterNumberName":"V-component_of_WINDS"},"data":[0,0,0,0,0,0,0,0,0,0,0,0,0,0,0,0,0,0,0,0,0,0,0,0,0,0,0,0,0,0,0,0,0,0,0,0,0,0,0,0,0,0,0,0,0,0,0,0,0,0,0,0,0,0,0,0,0,0,4.4222,4.4224,0,4.4446,4.4448,4.4451,4.4527,4.4526,4.4525,4.4524,4.4752,4.4759,4.4765,0,0,0,0,0,0,0,0,0,0,0,0,0,4.386,4.3866,4.4221,4.4224,4.4227,4.4445,4.4448,4.4452,4.4527,4.4526,4.4525,4.4524,4.475,4.4758,4.4766,0,0,0,0,0,0,0,0,0,0,0,0,0,4.4043,4.3868,4.4221,4.4291,4.4299,4.4445,4.4449,4.4452,4.4527,4.4526,4.4524,4.4523,4.4747,4.4757,4.4767,4.4859,0,0,4.4799,4.4803,0,0,0,0,0,0,0,0,4.4033,4.4057,4.4278,4.4286,4.4296,4.4457,4.4405,4.4588,4.4527,4.4441,4.4524,4.4522,4.4655,4.4673,4.4718,4.4869,4.4879,4.48,4.4806,4.4811,4.4813,0,0,0,0,0,0,0,4.402,4.4047,4.431,4.4281,4.4292,4.4312,4.4336,4.444,4.4552,4.4448,4.4454,4.448,4.4659,4.4707,4.4723,4.4882,4.4799,4.4809,4.4815,4.4819,4.5124,4.5126,0,0,0,0,0,0,4.3995,4.4036,4.4303,4.4317,4.4159,4.4319,4.4347,4.4407,4.4552,4.4572,4.4481,4.4482,4.469,4.4711,4.4732,4.4851,4.481,4.482,4.4826,4.5122,4.5125,4.5127,0,0,0,0,0,0,4.3987,4.4019,4.4294,4.4178,4.4215,4.4327,4.4394,4.4412,4.446,4.4576,4.4597,4.4509,4.469,4.4717,4.4828,4.486,4.4825,4.4834,4.512,4.5123,4.5126,4.5089,0,0,0,0,0,0,4.3977,4.4015,4.4051,4.4179,4.4221,4.4386,4.4396,4.4417,4.4478,4.4482,4.4608,4.4628,4.4691,4.4812,4.4838,4.4874,4.4842,4.5118,4.5122,4.5125,4.5087,4.509,4.5092,0,0,0,0,0,4.3964,4.403,4.4052,4.4084,4.4267,4.4387,4.4411,4.4483,4.448,4.4517,4.4593,4.4624,4.4852,4.4822,4.4852,4.4892,4.5116,4.512,4.5125,4.5086,4.5089,4.5092,0,0,0,0,0,0,4.3901,4.4048,4.4074,4.4184,4.4273,4.44,4.4449,4.4484,4.4575,4.4575,4.466,4.4688,4.4792,4.4853,4.4817,4.499,4.4986,4.4996,4.4946,4.495,4.4952,4.4936,4.4851,0,0,0,0,0,4.3901,4.3986,4.4109,4.4194,4.4238,4.4335,4.439,4.4438,4.4534,4.4571,4.4655,4.4746,4.4839,4.4897,4.4989,4.5096,4.5126,4.5139,4.5141,4.5142,4.515,4.5215,4.5223,4.5141,4.5141,4.5141,0,0,4.39,4.399,4.4038,4.4184,4.4259,4.4346,4.4366,4.4456,4.4523,4.4585,4.4695,4.476,4.4867,4.4977,4.503,4.5031,4.518,4.5147,4.5147,4.5156,4.522,4.5228,4.5234,4.5144,4.5143,4.5143,0,0,4.3943,4.4019,4.41,4.4175,4.4288,4.4353,4.4373,4.4496,4.4541,4.4654,4.4703,4.4783,4.494,4.5015,4.5074,4.515,4.5183,4.5177,4.5188,4.525,4.5257,4.5263,4.5292,4.5301,4.5184,4.5184,4.5184,0,4.3927,4.406,4.4136,4.4226,4.429,4.4352,4.4435,4.4504,4.4641,4.4684,4.4683,4.4884,4.4961,4.5091,4.511,4.5154,4.5181,4.5163,4.525,4.5257,4.5264,4.5293,4.5303,4.5183,4.5183,4.5183,4.5184,0,4.4037,4.4129,4.418,4.4313,4.4383,4.4468,4.4558,4.462,4.4662,4.4728,4.4843,4.4937,4.505,4.5085,4.5126,4.5222,4.522,4.5233,4.5231,4.5269,4.5298,4.5309,4.5181,4.5182,4.5182,4.5182,0,0,4.4046,4.4222,4.424,4.4302,4.4433,4.4506,4.4595,4.4708,4.476,4.4852,4.4931,4.5064,4.5079,4.5145,4.5196,4.525,4.5308,4.5259,4.5262,4.5266,4.5422,4.5412,4.5423,4.533,4.5333,4.5334,4.5414,0,4.4108,4.4271,4.4344,4.4474,4.4561,4.4623,4.4701,4.4791,4.4855,4.4938,4.5009,4.5103,4.5114,4.5156,4.5212,4.5288,4.534,4.5284,4.5405,4.5408,4.5378,4.5438,4.5427,4.5498,4.5425,4.5427,4.5428,0,4.4201,4.4297,4.4436,4.456,4.4599,4.4668,4.4779,4.4857,4.4961,4.5004,4.508,4.513,4.5227,4.5218,4.5355,4.5315,4.5369,4.5414,4.5419,4.5434,4.5421,4.5457,4.5521,4.5532,4.5446,4.5445,4.5444,0,4.4197,4.436,4.4466,4.4517,4.4663,4.4711,4.4774,4.4876,4.494,4.5036,4.5079,4.5184,4.5242,4.5323,4.5401,4.5386,4.5531,4.5527,4.557,4.5569,4.5599,4.5596,4.5675,4.563,4.563,4.563,4.563,0,4.4259,4.4343,4.4466,4.4531,4.4627,4.4711,4.4804,4.4871,4.4962,4.5042,4.5101,4.5175,4.5272,4.5358,4.5419,4.5524,4.5549,4.5588,4.5603,4.5584,4.5579,4.5621,4.5619,4.5633,4.5632,4.5632,4.5631,0,4.4271,4.4356,4.4476,4.4606,4.464,4.4706,4.4817,4.4883,4.4951,4.5052,4.508,4.5187,4.5292,4.5377,4.5513,4.5555,4.5666,4.5682,4.5631,4.564,4.5679,4.5675,4.5789,4.5809,4.5749,4.5749,4.5749,0,4.4306,4.4372,4.4509,4.4568,4.4631,4.4723,4.479,4.4875,4.4942,4.5066,4.5118,4.5227,4.532,4.5485,4.5575,4.568,4.5701,4.5734,4.5717,4.5697,4.5704,4.57,4.5709,4.5736,4.5736,4.5736,4.5736,0,4.4359,4.4399,4.4493,4.4602,4.468,4.4769,4.4861,4.4905,4.5007,4.5079,4.5188,4.526,4.5402,4.551,4.5626,4.5692,4.5732,4.5741,4.5757,4.5738,4.5707,4.5727,4.5638,4.5738,4.5738,4.5738,4.5738,4.5737,4.4386,4.4449,4.4556,4.4659,4.4737,4.4822,4.4891,4.4969,4.5062,4.5184,4.5229,4.5341,4.5446,4.5606,4.5672,4.5762,4.5766,4.5788,4.5794,4.5799,4.5798,4.5691,4.5783,4.5783,4.5783,4.5783,4.5783,0,4.4445,4.4518,4.4611,4.4738,4.482,4.4851,4.4955,4.5021,4.512,4.5214,4.5305,4.5431,4.5538,4.5637,4.5748,4.5801,4.5823,4.5828,4.5826,4.5841,4.5787,4.5763,4.5809,4.5809,4.5809,4.5809,4.5809,4.5809,4.4485,4.4594,4.4647,4.4797,4.4869,4.4981,4.5038,4.5117,4.5193,4.5332,4.5422,4.5486,4.5583,4.5703,4.5802,4.5829,4.5868,4.5869,4.59,4.5848,4.5844,4.5841,4.5819,4.5876,4.5876,4.5947,4.5948,4.5948]}]]